TimeCDT,TemperatureF,Dew PointF,Humidity,Sea Level PressureIn,VisibilityMPH,Wind Direction,Wind SpeedMPH,Gust SpeedMPH,PrecipitationIn,Events,Conditions,WindDirDegrees,DateUTC
12:15 AM,37.0,31.8,81,30.03,10.0,WNW,9.2,-,N/A,,Clear,290,2014-04-08 05:15:00
12:35 AM,35.8,30.9,82,30.02,10.0,WNW,8.1,-,N/A,,Clear,290,2014-04-08 05:35:00
1:15 AM,34.7,30.2,84,30.02,10.0,WNW,6.9,-,N/A,,Scattered Clouds,290,2014-04-08 06:15:00
1:35 AM,35.8,30.7,82,30.02,10.0,West,9.2,-,N/A,,Clear,280,2014-04-08 06:35:00
1:55 AM,34.7,30.0,83,30.02,10.0,West,6.9,-,N/A,,Scattered Clouds,280,2014-04-08 06:55:00
2:15 AM,34.9,29.8,82,30.02,10.0,NW,5.8,-,N/A,,Scattered Clouds,310,2014-04-08 07:15:00
2:35 AM,34.9,29.8,82,30.02,10.0,WNW,6.9,-,N/A,,Scattered Clouds,300,2014-04-08 07:35:00
2:55 AM,34.9,29.5,81,30.02,10.0,WNW,6.9,-,N/A,,Clear,300,2014-04-08 07:55:00
3:15 AM,36.0,30.0,79,30.01,10.0,WNW,10.4,-,N/A,,Scattered Clouds,300,2014-04-08 08:15:00
3:35 AM,37.4,30.6,76,30.01,10.0,WNW,9.2,-,N/A,,Scattered Clouds,300,2014-04-08 08:35:00
3:55 AM,37.0,30.4,77,30.02,10.0,WNW,10.4,-,N/A,,Scattered Clouds,300,2014-04-08 08:55:00
4:15 AM,36.9,30.2,77,30.01,10.0,NW,11.5,-,N/A,,Scattered Clouds,310,2014-04-08 09:15:00
4:35 AM,36.9,30.4,77,30.02,10.0,WNW,12.7,-,N/A,,Mostly Cloudy,300,2014-04-08 09:35:00
4:55 AM,36.5,30.2,78,30.04,10.0,NW,10.4,-,N/A,,Mostly Cloudy,310,2014-04-08 09:55:00
5:15 AM,36.1,30.0,78,30.04,10.0,NW,10.4,-,N/A,,Scattered Clouds,310,2014-04-08 10:15:00
5:35 AM,35.1,29.7,81,30.05,10.0,WNW,10.4,-,N/A,,Clear,300,2014-04-08 10:35:00
5:55 AM,34.9,29.3,80,30.06,10.0,NW,11.5,-,N/A,,Clear,310,2014-04-08 10:55:00
6:15 AM,34.7,29.3,81,30.06,10.0,WNW,11.5,-,N/A,,Clear,300,2014-04-08 11:15:00
6:35 AM,34.0,28.9,82,30.07,10.0,NW,10.4,-,N/A,,Clear,310,2014-04-08 11:35:00
6:55 AM,32.0,27.9,85,30.08,10.0,NNW,8.1,-,N/A,,Clear,340,2014-04-08 11:55:00
7:15 AM,30.9,27.0,85,30.09,10.0,NNW,9.2,-,N/A,,Clear,330,2014-04-08 12:15:00
7:35 AM,32.0,28.2,86,30.10,10.0,NW,10.4,-,N/A,,Clear,320,2014-04-08 12:35:00
7:55 AM,32.5,28.4,85,30.10,10.0,NW,9.2,-,N/A,,Clear,320,2014-04-08 12:55:00
8:15 AM,34.2,29.5,83,30.11,10.0,NW,10.4,-,N/A,,Clear,320,2014-04-08 13:15:00
8:35 AM,35.8,30.6,81,30.11,10.0,NNW,10.4,-,N/A,,Clear,330,2014-04-08 13:35:00
8:55 AM,37.8,31.6,79,30.12,10.0,NNW,11.5,-,N/A,,Clear,340,2014-04-08 13:55:00
9:15 AM,38.8,31.8,76,30.13,10.0,North,13.8,-,N/A,,Clear,350,2014-04-08 14:15:00
9:35 AM,40.1,31.8,72,30.13,10.0,North,12.7,-,N/A,,Clear,350,2014-04-08 14:35:00
9:55 AM,41.0,32.0,70,30.13,10.0,North,10.4,-,N/A,,Clear,350,2014-04-08 14:55:00
10:15 AM,42.3,32.0,67,30.14,10.0,North,12.7,-,N/A,,Clear,360,2014-04-08 15:15:00
10:35 AM,43.7,29.3,57,30.14,10.0,North,12.7,17.3,N/A,,Clear,360,2014-04-08 15:35:00
10:55 AM,44.6,27.0,50,30.15,10.0,North,12.7,-,N/A,,Clear,350,2014-04-08 15:55:00
11:15 AM,46.2,26.6,46,30.14,10.0,North,12.7,17.3,N/A,,Clear,350,2014-04-08 16:15:00
11:35 AM,47.3,26.4,44,30.14,10.0,North,11.5,-,N/A,,Clear,350,2014-04-08 16:35:00
11:55 AM,49.1,25.0,39,30.14,10.0,North,13.8,-,N/A,,Clear,360,2014-04-08 16:55:00
12:15 PM,50.2,23.4,35,30.14,10.0,NNW,13.8,18.4,N/A,,Clear,340,2014-04-08 17:15:00
12:35 PM,50.9,21.2,31,30.14,10.0,North,13.8,18.4,N/A,,Clear,360,2014-04-08 17:35:00
12:55 PM,51.6,21.0,30,30.14,10.0,NNW,9.2,17.3,N/A,,Clear,340,2014-04-08 17:55:00
1:15 PM,52.5,20.1,28,30.13,10.0,North,8.1,16.1,N/A,,Clear,350,2014-04-08 18:15:00
1:35 PM,53.6,18.9,26,30.13,10.0,NNW,9.2,18.4,N/A,,Clear,340,2014-04-08 18:35:00
1:55 PM,54.1,19.4,26,30.11,10.0,North,6.9,18.4,N/A,,Clear,350,2014-04-08 18:55:00
2:15 PM,54.5,18.0,24,30.11,10.0,North,6.9,10.4,N/A,,Clear,10,2014-04-08 19:15:00
2:35 PM,55.4,18.1,23,30.10,10.0,NW,11.5,19.6,N/A,,Clear,320,2014-04-08 19:35:00
2:55 PM,55.6,18.0,23,30.10,10.0,North,9.2,17.3,N/A,,Clear,360,2014-04-08 19:55:00
3:15 PM,56.5,18.3,23,30.09,10.0,WNW,6.9,-,N/A,,Clear,290,2014-04-08 20:15:00
3:35 PM,57.6,19.2,23,30.09,10.0,NNW,9.2,-,N/A,,Clear,330,2014-04-08 20:35:00
3:55 PM,56.5,17.6,22,30.08,10.0,NW,9.2,-,N/A,,Clear,310,2014-04-08 20:55:00
4:15 PM,56.3,18.0,22,30.07,10.0,NW,8.1,-,N/A,,Clear,320,2014-04-08 21:15:00
4:35 PM,57.2,16.9,21,30.07,10.0,WNW,5.8,-,N/A,,Clear,290,2014-04-08 21:35:00
4:55 PM,57.6,17.1,21,30.06,10.0,West,4.6,-,N/A,,Clear,280,2014-04-08 21:55:00
5:15 PM,57.4,17.1,21,30.05,10.0,Calm,Calm,-,N/A,,Clear,0,2014-04-08 22:15:00
5:35 PM,58.1,16.7,20,30.05,10.0,WSW,8.1,-,N/A,,Clear,250,2014-04-08 22:35:00
5:55 PM,58.3,16.7,20,30.04,10.0,SW,5.8,-,N/A,,Clear,220,2014-04-08 22:55:00
6:15 PM,58.3,16.2,19,30.04,10.0,Calm,Calm,-,N/A,,Clear,0,2014-04-08 23:15:00
6:35 PM,57.4,16.5,20,30.04,10.0,Calm,Calm,-,N/A,,Clear,0,2014-04-08 23:35:00
6:55 PM,56.7,15.8,20,30.04,10.0,Calm,Calm,-,N/A,,Clear,0,2014-04-08 23:55:00
7:15 PM,53.8,23.5,31,30.03,10.0,Calm,Calm,-,N/A,,Clear,0,2014-04-09 00:15:00
7:35 PM,53.4,21.4,29,30.03,10.0,ESE,4.6,-,N/A,,Clear,120,2014-04-09 00:35:00
7:55 PM,52.0,19.6,28,30.02,10.0,ESE,4.6,-,N/A,,Clear,120,2014-04-09 00:55:00
8:15 PM,51.3,20.3,30,30.02,10.0,SE,5.8,-,N/A,,Clear,140,2014-04-09 01:15:00
8:35 PM,49.8,21.2,32,30.02,10.0,SE,6.9,-,N/A,,Clear,130,2014-04-09 01:35:00
8:55 PM,49.8,20.5,32,30.01,10.0,SE,6.9,-,N/A,,Clear,140,2014-04-09 01:55:00
9:15 PM,48.4,21.9,35,30.01,10.0,SE,6.9,-,N/A,,Clear,140,2014-04-09 02:15:00
9:35 PM,48.2,21.9,36,30.01,10.0,SSE,8.1,-,N/A,,Clear,150,2014-04-09 02:35:00
9:55 PM,46.9,22.3,38,30.01,10.0,SSE,6.9,-,N/A,,Clear,160,2014-04-09 02:55:00
10:15 PM,46.2,22.6,39,30.00,10.0,SSE,8.1,-,N/A,,Clear,150,2014-04-09 03:15:00
10:35 PM,45.5,23.0,41,30.00,10.0,SSE,9.2,-,N/A,,Clear,160,2014-04-09 03:35:00
10:55 PM,43.9,23.7,45,29.99,10.0,South,8.1,-,N/A,,Clear,170,2014-04-09 03:55:00
11:15 PM,43.3,23.7,46,29.99,10.0,South,9.2,-,N/A,,Clear,170,2014-04-09 04:15:00
11:35 PM,43.2,23.7,46,29.98,10.0,South,10.4,-,N/A,,Clear,170,2014-04-09 04:35:00
11:55 PM,42.1,23.9,49,29.98,10.0,South,9.2,-,N/A,,Clear,170,2014-04-09 04:55:00